Location: Sears
(37.7625°N, 100.1060°W)
Time: 13:54:53
(UTC+00:00)

Envisat - Pass Details

Date: 07 August 2021
Orbit: 764 x 766 km, 98.2° (Epoch: 20 September)

Event Time Altitude Azimuth Distance (km) Brightness Sun altitude
Rises 11:03:09 0° 26° (NNE) 3,238 7.2 -9.1°
Reaches altitude 10° 11:05:50 10° 39° (NE) 2,307 6.7 -8.6°
Maximum altitude 11:10:03 26° 95° (E) 1,481 5.3 -7.9°
Drops below altitude 10° 11:14:13 10° 151° (SSE) 2,293 5.5 -7.2°
Sets 11:16:52 0° 164° (SSE) 3,214 6.1 -6.7°
